Weather History for Pian Rosa, Italy

Change the Weather History Date:

Friday, May 24, 2013

  Actual Average Record
Temperature  
Mean Temperature 8 °F -  
Max Temperature 10 °F 33 °F 44 °F (2007)
Min Temperature 5 °F 23 °F 5 °F (2013)
Degree Days  
Heating Degree Days 58    
Moisture  
Dew Point 3 °F    
Average Humidity 81    
Maximum Humidity 85    
Minimum Humidity 72    
Precipitation  
Precipitation 0.00 in - - ()
Sea Level Pressure  
Sea Level Pressure 29.56 in    
Wind  
Wind Speed 19 mph ()    
Max Wind Speed 37 mph    
Max Gust Speed -    
Visibility 4.4 miles    
Events Fog , Snow    
Averages and records for this station are not official NWS values.
T = Trace of Precipitation, MM = Missing Value Source: Averaged Metar Reports

Daily Weather History Graph

Daily Weather History Graph

Search for Another Location

Airport:

Trip Planner

Search our weather history database for the weather conditions in past years. The results will help you decide how hot, cold, wet, or windy it might be!

Date:

Astronomy

May. 24, 2013 Rise Set
Actual Time 5:48 AM CEST 9:04 PM CEST
Civil Twilight 5:11 AM CEST 9:41 PM CEST
Nautical Twilight 4:24 AM CEST 10:28 PM CEST
Astronomical Twilight 3:25 AM CEST 11:28 PM CEST
Moon 8:26 PM CEST (5/24) 5:10 AM CEST (5/24)
Length of Visible Light 16h 29m
Length of Day
15h 16m
Waxing Gibbous, 99% of the Moon is Illuminated
May 24
Waxing Gibbous
May 25
Full
May 31
Last Quarter
Jun 8
New
Jun 16
First Quarter

Hourly Weather History & Observations

Time (CEST) Temp. Windchill Dew Point Humidity Pressure Visibility Wind Dir Wind Speed Gust Speed Precip Events Conditions
12:55 AM 10.4 °F -4.8 °F 6.8 °F 85% 29.56 in 0.5 mi ENE 12.7 mph - N/A Fog Light Freezing Fog
1:55 AM 8.6 °F -10.0 °F 5.0 °F 85% 29.53 in 0.5 mi NNE 18.4 mph - N/A Fog Light Freezing Fog
2:00 AM 9 °F - 5 °F 77%  in 0 mi NNE 18.4 mph - - Fog Heavy Fog
2:55 AM 6.8 °F -13.8 °F 3.2 °F 85% 29.50 in 0.5 mi NNE 21.9 mph - N/A Fog Light Freezing Fog
3:55 AM 6.8 °F -14.7 °F 3.2 °F 85% 29.50 in 0.5 mi NE 24.2 mph - N/A Fog Light Freezing Fog
4:55 AM 6.8 °F -15.5 °F 3.2 °F 85% 29.47 in 0.5 mi NE 26.5 mph - N/A Fog Light Freezing Fog
5:00 AM 7 °F - 2 °F 73%  in 0 mi NE 26.5 mph - - Fog Heavy Fog
5:55 AM 6.8 °F -16.9 °F 1.4 °F 79% 29.47 in 0.1 mi NNE 31.1 mph - N/A Fog Light Freezing Fog
6:55 AM 5.0 °F -21.0 °F 1.4 °F 85% 29.47 in 0.2 mi ENE 36.8 mph - N/A Fog , Snow Light Snow
7:55 AM 5.0 °F -21.0 °F 1.4 °F 85% 29.44 in 0.1 mi ENE 36.8 mph - N/A Fog , Snow Light Snow
8:00 AM 5 °F - 1 °F 75%  in 0 mi ENE 36.8 mph - - Snow Light Snow
8:55 AM 5.0 °F -19.7 °F -0.4 °F 78% 29.47 in 0.5 mi ENE 32.2 mph - N/A Fog Light Freezing Fog
9:55 AM 5.0 °F -19.7 °F -0.4 °F 78% 29.47 in 6.2 mi ENE 32.2 mph - N/A   Mostly Cloudy
11:00 AM 5 °F - 1 °F 75%  in 12 mi ENE 33.4 mph - -   Partly Cloudy
1:55 PM 6.8 °F -16.6 °F 3.2 °F 85% 29.56 in 6.2 mi ENE 29.9 mph - N/A   Partly Cloudy
2:00 PM 7 °F - 3 °F 74%  in 19 mi ENE 29.9 mph - -   Partly Cloudy
2:55 PM 8.6 °F -10.5 °F 3.2 °F 79% 29.56 in 6.2 mi NE 19.6 mph - N/A   Partly Cloudy
3:55 PM 8.6 °F -11.4 °F 5.0 °F 85% 29.59 in 6.2 mi NE 21.9 mph - N/A   Partly Cloudy
4:55 PM 8.6 °F -10.0 °F 5.0 °F 85% 29.62 in 6.2 mi ENE 18.4 mph - N/A   Partly Cloudy
5:00 PM 9 °F - 4 °F 72%  in 19 mi ENE 18.4 mph - -   Scattered Clouds
5:55 PM 8.6 °F -6.3 °F 5.0 °F 85% 29.62 in 6.2 mi ENE 11.5 mph - N/A   Partly Cloudy
6:55 PM 10.4 °F - 6.8 °F 85% 29.62 in 6.2 mi Variable 2.3 mph - N/A   Mostly Cloudy
7:55 PM 8.6 °F -8.9 °F 5.0 °F 85% 29.62 in 6.2 mi ENE 16.1 mph - N/A   Partly Cloudy
8:00 PM 8 °F - 4 °F 77%  in 12 mi ENE 16.1 mph - -   Scattered Clouds
8:55 PM 8.6 °F -6.3 °F 3.2 °F 79% 29.65 in 6.2 mi NE 11.5 mph - N/A   Scattered Clouds
9:55 PM 8.6 °F -3.7 °F 3.2 °F 79% 29.65 in 6.2 mi NE 8.1 mph - N/A   Scattered Clouds
10:55 PM 8.6 °F -3.7 °F 5.0 °F 85% 29.65 in 0.5 mi NE 8.1 mph - N/A Fog Light Freezing Fog
11:00 PM 8 °F - 4 °F 77%  in 0 mi NE 8.1 mph - - Fog Heavy Fog
11:55 PM 8.6 °F - 5.0 °F 85% 29.65 in 0.5 mi ENE 2.3 mph - N/A Fog Light Freezing Fog